This is the latest recevied weather packets stored in our database for station/object KC8VEU. If no packets are shown the sender has not sent any weather packets the latest 10 day(s).
| Time | Temp. | Humidity | Pressure | Rain* | Wind** | Luminosity | Snow |
|---|---|---|---|---|---|---|---|
| 1777973737 | 1.67° C | 86% | 992.1 hPa | 0 mm | - | - | - |
| 1777973116 | 1.67° C | 86% | 992.2 hPa | 0 mm | - | - | - |
| 1777972216 | 1.67° C | 86% | 992.1 hPa | 0 mm | - | - | - |
| 1777968016 | 1.67° C | 82% | 991.7 hPa | 0 mm | - | - | - |
| 1777962016 | 2.22° C | 81% | 991.4 hPa | 0 mm | - | - | - |
| 1777960216 | 2.78° C | 80% | 991.2 hPa | 0 mm | - | - | - |
| 1777959616 | 2.78° C | 82% | 991.2 hPa | 0 mm | - | - | - |
| 1777956616 | 3.33° C | 82% | 990.5 hPa | 0 mm | - | - | - |
| 1777953616 | 3.33° C | 80% | 989.9 hPa | 0 mm | - | - | - |
| 1777951817 | 3.89° C | 77% | 989.5 hPa | 0 mm | - | - | - |
| 1777950017 | 3.89° C | 76% | 989.4 hPa | 0 mm | - | - | - |
| 1777949117 | 4.44° C | 73% | 989.4 hPa | 0 mm | - | - | - |
| 1777946757 | 5° C | 70% | 988.9 hPa | 0 mm | - | - | - |
| 1777941917 | 6.11° C | 67% | 988.3 hPa | 0 mm | - | - | - |
| 1777940717 | 6.11° C | 69% | 988.2 hPa | 0 mm | - | - | - |
| 1777937137 | 7.78° C | 63% | 987.6 hPa | 0 mm | - | - | - |
| 1777936537 | 7.78° C | 61% | 987.6 hPa | 0 mm | - | - | - |
| 1777932317 | 9.44° C | 54% | 986.6 hPa | 0 mm | - | - | - |
| 1777931717 | 9.44° C | 56% | 986.3 hPa | 0 mm | - | - | - |
| 1777923317 | 10° C | 56% | 984.7 hPa | 0 mm | - | - | - |
| 1777921558 | 10° C | 61% | 984.5 hPa | 0 mm | - | - | - |
| 1777916717 | 11.11° C | 64% | 983.1 hPa | 0 mm | - | - | - |
| 1777913716 | 10.56° C | 70% | 982.5 hPa | 0.25 mm | - | - | - |
| 1777911316 | 10° C | 79% | 981.9 hPa | 0 mm | - | - | - |
| 1777910117 | 8.33° C | 86% | 981.9 hPa | 0 mm | - | - | - |
* Rain latest hour (hover to see other rain measurements)
** Current wind speed in m/s (hover to see current wind gust speed)